Time,TemperatureF,DewpointF,PressureIn,WindDirection,WindDirectionDegrees,WindSpeedMPH,WindSpeedGustMPH,Humidity,HourlyPrecipIn,Conditions,Clouds,dailyrainin,SoftwareType,DateUTC
2013-07-18 00:01:00,67.4,54.3,30.09,WNW,289,7.0,12.0,63,0.00,,,0.00,Weather View 32 v70,2013-07-18 07:01:00,
2013-07-18 00:06:00,67.1,54.5,30.09,West,271,6.0,14.0,64,0.00,,,0.00,Weather View 32 v70,2013-07-18 07:06:00,
2013-07-18 00:11:00,66.9,54.3,30.09,West,263,5.0,14.0,64,0.00,,,0.00,Weather View 32 v70,2013-07-18 07:11:00,
2013-07-18 00:16:00,67.1,54.5,30.09,WSW,257,5.0,14.0,64,0.00,,,0.00,Weather View 32 v70,2013-07-18 07:16:00,
2013-07-18 00:21:00,66.9,54.3,30.09,WSW,254,5.0,14.0,64,0.00,,,0.00,Weather View 32 v70,2013-07-18 07:21:00,
2013-07-18 00:26:00,66.9,54.3,30.09,West,277,6.0,14.0,64,0.00,,,0.00,Weather View 32 v70,2013-07-18 07:26:00,
2013-07-18 00:31:00,66.9,54.3,30.09,WNW,288,13.0,17.0,64,0.00,,,0.00,Weather View 32 v70,2013-07-18 07:31:00,
2013-07-18 00:36:00,66.9,54.3,30.09,West,276,5.0,19.0,64,0.00,,,0.00,Weather View 32 v70,2013-07-18 07:36:00,
2013-07-18 00:41:00,66.9,54.3,30.09,West,259,3.0,19.0,64,0.00,,,0.00,Weather View 32 v70,2013-07-18 07:41:00,
2013-07-18 00:46:00,66.9,54.3,30.09,West,271,4.0,19.0,64,0.00,,,0.00,Weather View 32 v70,2013-07-18 07:46:00,
2013-07-18 00:51:00,66.9,54.3,30.09,WNW,285,8.0,19.0,64,0.00,,,0.00,Weather View 32 v70,2013-07-18 07:51:00,
2013-07-18 00:56:00,66.8,54.2,30.09,WNW,300,3.0,19.0,64,0.00,,,0.00,Weather View 32 v70,2013-07-18 07:56:00,
2013-07-18 01:01:00,66.4,54.2,30.09,WNW,290,4.0,19.0,65,0.00,,,0.00,Weather View 32 v70,2013-07-18 08:01:00,
2013-07-18 01:06:00,66.3,54.1,30.09,North,355,8.0,19.0,65,0.00,,,0.00,Weather View 32 v70,2013-07-18 08:06:00,
2013-07-18 01:11:00,66.1,54.4,30.09,WNW,298,2.0,19.0,66,0.00,,,0.00,Weather View 32 v70,2013-07-18 08:11:00,
2013-07-18 01:16:00,66.0,54.3,30.08,WNW,294,4.0,19.0,66,0.00,,,0.00,Weather View 32 v70,2013-07-18 08:16:00,
2013-07-18 01:21:00,65.8,54.5,30.09,WNW,302,8.0,19.0,67,0.00,,,0.00,Weather View 32 v70,2013-07-18 08:21:00,
2013-07-18 01:26:00,65.5,54.6,30.09,West,281,5.0,19.0,68,0.00,,,0.00,Weather View 32 v70,2013-07-18 08:26:00,
2013-07-18 01:31:00,65.5,54.6,30.08,NW,317,3.0,19.0,68,0.00,,,0.00,Weather View 32 v70,2013-07-18 08:31:00,
2013-07-18 01:36:00,65.3,54.4,30.08,West,259,3.0,17.0,68,0.00,,,0.00,Weather View 32 v70,2013-07-18 08:36:00,
2013-07-18 01:41:00,65.3,54.4,30.08,West,275,13.0,17.0,68,0.00,,,0.00,Weather View 32 v70,2013-07-18 08:41:00,
2013-07-18 01:46:00,65.6,54.3,30.08,NW,310,3.0,17.0,67,0.00,,,0.00,Weather View 32 v70,2013-07-18 08:46:00,
2013-07-18 01:51:00,65.5,54.2,30.09,WNW,295,3.0,17.0,67,0.00,,,0.00,Weather View 32 v70,2013-07-18 08:51:00,
2013-07-18 01:56:00,65.5,54.2,30.09,West,267,6.0,16.0,67,0.00,,,0.00,Weather View 32 v70,2013-07-18 08:56:00,
2013-07-18 02:01:00,65.5,54.2,30.09,WNW,291,4.0,16.0,67,0.00,,,0.00,Weather View 32 v70,2013-07-18 09:01:00,
2013-07-18 02:06:00,65.5,54.2,30.09,West,276,8.0,16.0,67,0.00,,,0.00,Weather View 32 v70,2013-07-18 09:06:00,
2013-07-18 02:11:00,65.3,54.0,30.09,West,270,3.0,16.0,67,0.00,,,0.00,Weather View 32 v70,2013-07-18 09:11:00,
2013-07-18 02:16:00,65.2,54.3,30.09,NW,319,3.0,16.0,68,0.00,,,0.00,Weather View 32 v70,2013-07-18 09:16:00,
2013-07-18 02:21:00,65.0,54.2,30.09,West,268,1.0,15.0,68,0.00,,,0.00,Weather View 32 v70,2013-07-18 09:21:00,
2013-07-18 02:26:00,64.8,54.0,30.09,WNW,295,2.0,15.0,68,0.00,,,0.00,Weather View 32 v70,2013-07-18 09:26:00,
2013-07-18 02:31:00,64.7,53.9,30.09,WNW,303,0.0,15.0,68,0.00,,,0.00,Weather View 32 v70,2013-07-18 09:31:00,
2013-07-18 02:36:00,64.5,54.1,30.09,NW,311,0.0,15.0,69,0.00,,,0.00,Weather View 32 v70,2013-07-18 09:36:00,
2013-07-18 02:41:00,64.3,53.9,30.09,West,264,3.0,15.0,69,0.00,,,0.00,Weather View 32 v70,2013-07-18 09:41:00,
2013-07-18 02:46:00,64.2,53.8,30.09,WNW,290,4.0,15.0,69,0.00,,,0.00,Weather View 32 v70,2013-07-18 09:46:00,
2013-07-18 02:51:00,64.0,53.6,30.09,WNW,290,1.0,15.0,69,0.00,,,0.00,Weather View 32 v70,2013-07-18 09:51:00,
2013-07-18 02:56:00,64.0,54.0,30.09,NW,308,4.0,15.0,70,0.00,,,0.00,Weather View 32 v70,2013-07-18 09:56:00,
2013-07-18 03:01:00,63.9,53.9,30.09,West,281,7.0,15.0,70,0.00,,,0.00,Weather View 32 v70,2013-07-18 10:01:00,
2013-07-18 03:06:00,63.9,54.3,30.09,WNW,302,6.0,15.0,71,0.00,,,0.00,Weather View 32 v70,2013-07-18 10:06:00,
2013-07-18 03:11:00,63.7,54.5,30.09,West,281,4.0,14.0,72,0.00,,,0.00,Weather View 32 v70,2013-07-18 10:11:00,
2013-07-18 03:16:00,63.4,54.2,30.09,West,272,2.0,13.0,72,0.00,,,0.00,Weather View 32 v70,2013-07-18 10:16:00,
2013-07-18 03:21:00,63.4,54.2,30.09,West,267,6.0,13.0,72,0.00,,,0.00,Weather View 32 v70,2013-07-18 10:21:00,
2013-07-18 03:26:00,63.2,54.0,30.09,West,278,1.0,13.0,72,0.00,,,0.00,Weather View 32 v70,2013-07-18 10:26:00,
2013-07-18 03:31:00,63.2,54.0,30.09,WNW,292,1.0,13.0,72,0.00,,,0.00,Weather View 32 v70,2013-07-18 10:31:00,
2013-07-18 03:36:00,63.2,53.6,30.09,WNW,290,0.0,13.0,71,0.00,,,0.00,Weather View 32 v70,2013-07-18 10:36:00,
2013-07-18 03:41:00,63.2,53.6,30.09,WNW,290,1.0,13.0,71,0.00,,,0.00,Weather View 32 v70,2013-07-18 10:41:00,
2013-07-18 03:46:00,63.1,53.9,30.09,ENE,67,1.0,13.0,72,0.00,,,0.00,Weather View 32 v70,2013-07-18 10:46:00,
2013-07-18 03:51:00,62.9,53.7,30.09,SSW,211,1.0,13.0,72,0.00,,,0.00,Weather View 32 v70,2013-07-18 10:51:00,
2013-07-18 04:00:00,62.3,54.3,30.09,NW,311,2.0,13.0,75,0.00,,,0.00,Weather View 32 v70,2013-07-18 11:00:00,
2013-07-18 04:05:00,61.8,54.1,30.09,NW,311,1.0,13.0,76,0.00,,,0.00,Weather View 32 v70,2013-07-18 11:05:00,
2013-07-18 04:10:00,61.6,54.3,30.10,WNW,300,5.0,10.0,77,0.00,,,0.00,Weather View 32 v70,2013-07-18 11:10:00,
2013-07-18 04:15:00,61.6,53.6,30.09,WNW,296,0.0,10.0,75,0.00,,,0.00,Weather View 32 v70,2013-07-18 11:15:00,
2013-07-18 04:20:00,62.0,53.6,30.09,WNW,300,4.0,10.0,74,0.00,,,0.00,Weather View 32 v70,2013-07-18 11:20:00,
2013-07-18 04:25:00,62.0,53.6,30.10,WNW,300,2.0,7.0,74,0.00,,,0.00,Weather View 32 v70,2013-07-18 11:25:00,
2013-07-18 04:30:00,61.6,53.6,30.10,WNW,298,1.0,6.0,75,0.00,,,0.00,Weather View 32 v70,2013-07-18 11:30:00,
2013-07-18 04:35:00,61.3,54.0,30.10,NW,308,2.0,7.0,77,0.00,,,0.00,Weather View 32 v70,2013-07-18 11:35:00,
2013-07-18 04:40:00,61.0,53.7,30.10,West,278,1.0,7.0,77,0.00,,,0.00,Weather View 32 v70,2013-07-18 11:40:00,
2013-07-18 04:45:00,60.9,54.0,30.10,WNW,294,1.0,7.0,78,0.00,,,0.00,Weather View 32 v70,2013-07-18 11:45:00,
2013-07-18 04:49:00,61.0,54.4,30.10,WNW,302,4.0,9.0,79,0.00,,,0.00,Weather View 32 v70,2013-07-18 11:49:00,
2013-07-18 04:54:00,60.9,54.7,30.10,NW,311,3.0,10.0,80,0.00,,,0.00,Weather View 32 v70,2013-07-18 11:54:00,
2013-07-18 04:59:00,60.9,54.3,30.10,NW,306,4.0,10.0,79,0.00,,,0.00,Weather View 32 v70,2013-07-18 11:59:00,
2013-07-18 05:04:00,60.7,54.5,30.10,NW,304,5.0,12.0,80,0.00,,,0.00,Weather View 32 v70,2013-07-18 12:04:00,
2013-07-18 05:10:00,60.5,54.3,30.10,West,280,7.0,12.0,80,0.00,,,0.00,Weather View 32 v70,2013-07-18 12:10:00,
2013-07-18 05:14:00,60.5,54.3,30.10,NW,323,2.0,14.0,80,0.00,,,0.00,Weather View 32 v70,2013-07-18 12:14:00,
2013-07-18 05:19:00,60.4,54.5,30.10,WNW,288,4.0,14.0,81,0.00,,,0.00,Weather View 32 v70,2013-07-18 12:19:00,
2013-07-18 05:24:00,60.2,54.3,30.10,WNW,283,5.0,14.0,81,0.00,,,0.00,Weather View 32 v70,2013-07-18 12:24:00,
2013-07-18 05:29:00,60.1,54.2,30.11,West,269,7.0,14.0,81,0.00,,,0.00,Weather View 32 v70,2013-07-18 12:29:00,
2013-07-18 05:34:00,60.1,54.2,30.11,WNW,289,4.0,14.0,81,0.00,,,0.00,Weather View 32 v70,2013-07-18 12:34:00,
2013-07-18 05:39:00,60.1,53.9,30.11,West,278,3.0,14.0,80,0.00,,,0.00,Weather View 32 v70,2013-07-18 12:39:00,
2013-07-18 05:44:00,60.2,54.0,30.11,West,279,4.0,14.0,80,0.00,,,0.00,Weather View 32 v70,2013-07-18 12:44:00,
2013-07-18 05:49:00,60.1,53.9,30.11,WNW,285,3.0,14.0,80,0.00,,,0.00,Weather View 32 v70,2013-07-18 12:49:00,
2013-07-18 05:54:00,60.2,53.6,30.12,WNW,296,5.0,14.0,79,0.00,,,0.00,Weather View 32 v70,2013-07-18 12:54:00,
2013-07-18 05:59:00,60.1,53.9,30.12,WNW,301,4.0,14.0,80,0.00,,,0.00,Weather View 32 v70,2013-07-18 12:59:00,
2013-07-18 06:04:00,59.9,54.0,30.12,WNW,302,1.0,14.0,81,0.00,,,0.00,Weather View 32 v70,2013-07-18 13:04:00,
2013-07-18 06:09:00,59.8,53.9,30.12,WNW,299,5.0,14.0,81,0.00,,,0.00,Weather View 32 v70,2013-07-18 13:09:00,
2013-07-18 06:14:00,59.9,54.0,30.12,WNW,286,2.0,13.0,81,0.00,,,0.00,Weather View 32 v70,2013-07-18 13:14:00,
2013-07-18 06:19:00,60.2,54.3,30.12,West,277,3.0,13.0,81,0.00,,,0.00,Weather View 32 v70,2013-07-18 13:19:00,
2013-07-18 06:24:00,60.2,54.3,30.12,WNW,284,2.0,12.0,81,0.00,,,0.00,Weather View 32 v70,2013-07-18 13:24:00,
2013-07-18 06:29:00,60.5,53.9,30.12,WNW,290,2.0,14.0,79,0.00,,,0.00,Weather View 32 v70,2013-07-18 13:29:00,
2013-07-18 06:34:00,60.7,54.1,30.12,West,267,8.0,14.0,79,0.00,,,0.00,Weather View 32 v70,2013-07-18 13:34:00,
2013-07-18 06:39:00,60.9,54.0,30.12,NW,304,1.0,14.0,78,0.00,,,0.00,Weather View 32 v70,2013-07-18 13:39:00,
2013-07-18 06:44:00,61.2,54.3,30.12,WNW,297,3.0,14.0,78,0.00,,,0.00,Weather View 32 v70,2013-07-18 13:44:00,
2013-07-18 06:49:00,61.2,54.3,30.12,WNW,282,2.0,14.0,78,0.00,,,0.00,Weather View 32 v70,2013-07-18 13:49:00,
2013-07-18 06:54:00,61.2,54.6,30.12,WNW,291,3.0,14.0,79,0.00,,,0.00,Weather View 32 v70,2013-07-18 13:54:00,
2013-07-18 06:59:00,61.2,54.6,30.12,WNW,296,4.0,14.0,79,0.00,,,0.00,Weather View 32 v70,2013-07-18 13:59:00,
2013-07-18 07:04:00,61.3,54.4,30.12,NW,307,6.0,14.0,78,0.00,,,0.00,Weather View 32 v70,2013-07-18 14:04:00,
2013-07-18 07:09:00,61.5,54.2,30.12,WNW,294,5.0,14.0,77,0.00,,,0.00,Weather View 32 v70,2013-07-18 14:09:00,
2013-07-18 07:14:00,61.6,54.3,30.12,West,269,5.0,17.0,77,0.00,,,0.00,Weather View 32 v70,2013-07-18 14:14:00,
2013-07-18 07:19:00,61.8,54.1,30.13,WNW,295,5.0,17.0,76,0.00,,,0.00,Weather View 32 v70,2013-07-18 14:19:00,
2013-07-18 07:24:00,62.1,54.1,30.13,WNW,286,5.0,17.0,75,0.00,,,0.00,Weather View 32 v70,2013-07-18 14:24:00,
2013-07-18 07:29:00,62.3,54.3,30.13,West,275,4.0,17.0,75,0.00,,,0.00,Weather View 32 v70,2013-07-18 14:29:00,
2013-07-18 07:34:00,62.3,54.6,30.13,WNW,290,6.0,17.0,76,0.00,,,0.00,Weather View 32 v70,2013-07-18 14:34:00,
2013-07-18 07:39:00,62.1,54.8,30.13,NW,305,4.0,17.0,77,0.00,,,0.00,Weather View 32 v70,2013-07-18 14:39:00,
2013-07-18 07:44:00,62.1,54.4,30.13,WNW,284,5.0,17.0,76,0.00,,,0.00,Weather View 32 v70,2013-07-18 14:44:00,
2013-07-18 07:49:00,62.4,54.7,30.13,WNW,300,4.0,17.0,76,0.00,,,0.00,Weather View 32 v70,2013-07-18 14:49:00,
2013-07-18 07:54:00,62.7,54.3,30.13,WNW,284,8.0,17.0,74,0.00,,,0.00,Weather View 32 v70,2013-07-18 14:54:00,
2013-07-18 07:59:00,62.7,54.6,30.13,WNW,288,5.0,17.0,75,0.00,,,0.00,Weather View 32 v70,2013-07-18 14:59:00,
2013-07-18 08:04:00,63.1,55.0,30.13,WNW,300,5.0,17.0,75,0.00,,,0.00,Weather View 32 v70,2013-07-18 15:04:00,
2013-07-18 08:09:00,63.1,55.0,30.13,NW,310,6.0,17.0,75,0.00,,,0.00,Weather View 32 v70,2013-07-18 15:09:00,
2013-07-18 08:14:00,63.1,55.0,30.12,WNW,288,6.0,17.0,75,0.00,,,0.00,Weather View 32 v70,2013-07-18 15:14:00,
2013-07-18 08:19:00,63.1,54.7,30.12,WNW,300,4.0,17.0,74,0.00,,,0.00,Weather View 32 v70,2013-07-18 15:19:00,
2013-07-18 08:24:00,63.2,55.1,30.12,WNW,302,12.0,17.0,75,0.00,,,0.00,Weather View 32 v70,2013-07-18 15:24:00,
2013-07-18 08:29:00,63.4,54.9,30.12,WNW,294,11.0,17.0,74,0.00,,,0.00,Weather View 32 v70,2013-07-18 15:29:00,
2013-07-18 08:34:00,63.5,55.4,30.12,West,269,7.0,17.0,75,0.00,,,0.00,Weather View 32 v70,2013-07-18 15:34:00,
2013-07-18 08:39:00,63.7,55.2,30.12,WNW,287,3.0,17.0,74,0.00,,,0.00,Weather View 32 v70,2013-07-18 15:39:00,
2013-07-18 08:44:00,64.0,55.5,30.12,WNW,288,9.0,17.0,74,0.00,,,0.00,Weather View 32 v70,2013-07-18 15:44:00,
2013-07-18 08:49:00,64.3,55.4,30.12,WNW,294,5.0,17.0,73,0.00,,,0.00,Weather View 32 v70,2013-07-18 15:49:00,
2013-07-18 08:54:00,64.7,55.1,30.12,NW,318,6.0,17.0,71,0.00,,,0.00,Weather View 32 v70,2013-07-18 15:54:00,
2013-07-18 08:59:00,65.0,55.3,30.12,NW,321,10.0,17.0,71,0.00,,,0.00,Weather View 32 v70,2013-07-18 15:59:00,
2013-07-18 09:04:00,65.3,55.6,30.12,NW,311,10.0,17.0,71,0.00,,,0.00,Weather View 32 v70,2013-07-18 16:04:00,
2013-07-18 09:09:00,65.3,55.6,30.12,WNW,297,12.0,16.0,71,0.00,,,0.00,Weather View 32 v70,2013-07-18 16:09:00,
2013-07-18 09:14:00,65.5,55.8,30.12,NW,304,8.0,16.0,71,0.00,,,0.00,Weather View 32 v70,2013-07-18 16:14:00,
2013-07-18 09:19:00,65.6,55.9,30.12,NW,311,4.0,16.0,71,0.00,,,0.00,Weather View 32 v70,2013-07-18 16:19:00,
2013-07-18 09:24:00,66.1,55.6,30.12,NW,319,8.0,16.0,69,0.00,,,0.00,Weather View 32 v70,2013-07-18 16:24:00,
2013-07-18 09:29:00,66.6,56.1,30.11,NW,317,7.0,16.0,69,0.00,,,0.00,Weather View 32 v70,2013-07-18 16:29:00,
2013-07-18 09:34:00,67.1,55.7,30.11,WNW,300,5.0,16.0,67,0.00,,,0.00,Weather View 32 v70,2013-07-18 16:34:00,
2013-07-18 09:39:00,67.4,56.0,30.11,WNW,294,7.0,16.0,67,0.00,,,0.00,Weather View 32 v70,2013-07-18 16:39:00,
2013-07-18 09:44:00,67.9,55.7,30.11,NW,309,5.0,16.0,65,0.00,,,0.00,Weather View 32 v70,2013-07-18 16:44:00,
2013-07-18 09:49:00,67.8,56.0,30.10,WNW,293,11.0,16.0,66,0.00,,,0.00,Weather View 32 v70,2013-07-18 16:49:00,
2013-07-18 09:54:00,68.4,56.1,30.10,WNW,303,6.0,16.0,65,0.00,,,0.00,Weather View 32 v70,2013-07-18 16:54:00,
2013-07-18 09:59:00,69.1,56.4,30.10,WNW,296,8.0,16.0,64,0.00,,,0.00,Weather View 32 v70,2013-07-18 16:59:00,
2013-07-18 10:04:00,69.4,56.2,30.10,West,263,5.0,15.0,63,0.00,,,0.00,Weather View 32 v70,2013-07-18 17:04:00,
2013-07-18 10:09:00,70.3,55.7,30.10,WNW,290,5.0,15.0,60,0.00,,,0.00,Weather View 32 v70,2013-07-18 17:09:00,
2013-07-18 10:14:00,71.1,55.0,30.10,NW,318,11.0,15.0,57,0.00,,,0.00,Weather View 32 v70,2013-07-18 17:14:00,
2013-07-18 10:19:00,71.8,55.2,30.10,WNW,294,6.0,15.0,56,0.00,,,0.00,Weather View 32 v70,2013-07-18 17:19:00,
2013-07-18 10:24:00,71.6,55.5,30.10,NW,308,6.0,15.0,57,0.00,,,0.00,Weather View 32 v70,2013-07-18 17:24:00,
2013-07-18 10:29:00,72.0,54.9,30.10,WSW,258,8.0,15.0,55,0.00,,,0.00,Weather View 32 v70,2013-07-18 17:29:00,
2013-07-18 10:34:00,72.7,54.5,30.09,WNW,282,5.0,15.0,53,0.00,,,0.00,Weather View 32 v70,2013-07-18 17:34:00,
2013-07-18 10:39:00,72.5,54.3,30.09,WNW,303,9.0,15.0,53,0.00,,,0.00,Weather View 32 v70,2013-07-18 17:39:00,
2013-07-18 10:44:00,72.7,54.5,30.09,WNW,287,15.0,15.0,53,0.00,,,0.00,Weather View 32 v70,2013-07-18 17:44:00,
2013-07-18 10:49:00,72.7,54.5,30.09,West,259,8.0,15.0,53,0.00,,,0.00,Weather View 32 v70,2013-07-18 17:49:00,
2013-07-18 10:54:00,73.0,54.3,30.09,West,274,2.0,15.0,52,0.00,,,0.00,Weather View 32 v70,2013-07-18 17:54:00,
2013-07-18 10:59:00,72.8,54.1,30.09,NW,305,7.0,15.0,52,0.00,,,0.00,Weather View 32 v70,2013-07-18 17:59:00,
2013-07-18 11:04:00,73.3,55.1,30.09,WNW,290,5.0,15.0,53,0.00,,,0.00,Weather View 32 v70,2013-07-18 18:04:00,
2013-07-18 11:09:00,73.5,54.7,30.09,NW,309,7.0,15.0,52,0.00,,,0.00,Weather View 32 v70,2013-07-18 18:09:00,
2013-07-18 11:14:00,73.7,54.9,30.08,WNW,301,10.0,15.0,52,0.00,,,0.00,Weather View 32 v70,2013-07-18 18:14:00,
2013-07-18 11:19:00,73.7,54.9,30.08,WNW,302,8.0,15.0,52,0.00,,,0.00,Weather View 32 v70,2013-07-18 18:19:00,
2013-07-18 11:24:00,74.0,54.7,30.08,NW,312,7.0,16.0,51,0.00,,,0.00,Weather View 32 v70,2013-07-18 18:24:00,
2013-07-18 11:29:00,74.2,54.3,30.08,WNW,294,11.0,16.0,50,0.00,,,0.00,Weather View 32 v70,2013-07-18 18:29:00,
2013-07-18 11:34:00,74.4,54.5,30.08,WNW,300,16.0,16.0,50,0.00,,,0.00,Weather View 32 v70,2013-07-18 18:34:00,
2013-07-18 11:39:00,74.7,53.1,30.07,WNW,288,7.0,19.0,47,0.00,,,0.00,Weather View 32 v70,2013-07-18 18:39:00,
2013-07-18 11:44:00,75.3,53.6,30.07,WNW,299,6.0,19.0,47,0.00,,,0.00,Weather View 32 v70,2013-07-18 18:44:00,
2013-07-18 11:49:00,75.8,53.5,30.07,West,268,9.0,19.0,46,0.00,,,0.00,Weather View 32 v70,2013-07-18 18:49:00,
2013-07-18 11:54:00,76.1,52.5,30.07,North,0,9.0,19.0,44,0.00,,,0.00,Weather View 32 v70,2013-07-18 18:54:00,
2013-07-18 11:59:00,76.5,52.9,30.07,WNW,287,3.0,19.0,44,0.00,,,0.00,Weather View 32 v70,2013-07-18 18:59:00,
2013-07-18 12:04:00,76.8,51.9,30.07,WSW,257,8.0,19.0,42,0.00,,,0.00,Weather View 32 v70,2013-07-18 19:04:00,
2013-07-18 12:09:00,77.0,50.1,30.07,WNW,300,9.0,19.0,39,0.00,,,0.00,Weather View 32 v70,2013-07-18 19:09:00,
2013-07-18 12:14:00,77.2,50.9,30.06,WNW,292,3.0,19.0,40,0.00,,,0.00,Weather View 32 v70,2013-07-18 19:14:00,
2013-07-18 12:19:00,77.6,50.6,30.06,WNW,282,6.0,19.0,39,0.00,,,0.00,Weather View 32 v70,2013-07-18 19:19:00,
2013-07-18 12:24:00,77.9,49.5,30.06,West,281,9.0,19.0,37,0.00,,,0.00,Weather View 32 v70,2013-07-18 19:24:00,
2013-07-18 12:29:00,78.5,49.2,30.05,WNW,283,7.0,19.0,36,0.00,,,0.00,Weather View 32 v70,2013-07-18 19:29:00,
2013-07-18 12:34:00,78.5,48.5,30.05,WNW,284,8.0,19.0,35,0.00,,,0.00,Weather View 32 v70,2013-07-18 19:34:00,
2013-07-18 12:39:00,78.6,48.6,30.05,NW,315,4.0,17.0,35,0.00,,,0.00,Weather View 32 v70,2013-07-18 19:39:00,
2013-07-18 12:44:00,78.8,49.5,30.05,NW,311,9.0,17.0,36,0.00,,,0.00,Weather View 32 v70,2013-07-18 19:44:00,
2013-07-18 12:49:00,79.2,49.9,30.05,NW,313,8.0,17.0,36,0.00,,,0.00,Weather View 32 v70,2013-07-18 19:49:00,
2013-07-18 12:54:00,79.4,49.3,30.05,NW,310,5.0,17.0,35,0.00,,,0.00,Weather View 32 v70,2013-07-18 19:54:00,
2013-07-18 12:59:00,79.2,49.9,30.04,NW,305,14.0,17.0,36,0.00,,,0.00,Weather View 32 v70,2013-07-18 19:59:00,
2013-07-18 13:04:00,79.2,49.9,30.04,WSW,247,12.0,17.0,36,0.00,,,0.00,Weather View 32 v70,2013-07-18 20:04:00,
2013-07-18 13:09:00,79.8,51.9,30.04,WNW,300,6.0,17.0,38,0.00,,,0.00,Weather View 32 v70,2013-07-18 20:09:00,
2013-07-18 13:14:00,80.1,49.9,30.04,NW,313,9.0,17.0,35,0.00,,,0.00,Weather View 32 v70,2013-07-18 20:14:00,
2013-07-18 13:19:00,80.1,49.1,30.04,NW,315,12.0,17.0,34,0.00,,,0.00,Weather View 32 v70,2013-07-18 20:19:00,
2013-07-18 13:24:00,80.1,49.1,30.03,WNW,299,8.0,17.0,34,0.00,,,0.00,Weather View 32 v70,2013-07-18 20:24:00,
2013-07-18 13:29:00,80.3,48.5,30.03,WNW,282,4.0,19.0,33,0.00,,,0.00,Weather View 32 v70,2013-07-18 20:29:00,
2013-07-18 13:34:00,80.3,48.5,30.03,WNW,291,13.0,22.0,33,0.00,,,0.00,Weather View 32 v70,2013-07-18 20:34:00,
2013-07-18 13:39:00,80.3,48.5,30.03,NW,305,8.0,22.0,33,0.00,,,0.00,Weather View 32 v70,2013-07-18 20:39:00,
2013-07-18 13:44:00,80.7,48.8,30.02,WNW,298,7.0,22.0,33,0.00,,,0.00,Weather View 32 v70,2013-07-18 20:44:00,
2013-07-18 13:49:00,80.9,48.2,30.02,WSW,240,7.0,22.0,32,0.00,,,0.00,Weather View 32 v70,2013-07-18 20:49:00,
2013-07-18 13:54:00,81.4,48.6,30.02,NW,315,10.0,22.0,32,0.00,,,0.00,Weather View 32 v70,2013-07-18 20:54:00,
2013-07-18 13:59:00,81.2,47.6,30.02,WNW,286,6.0,22.0,31,0.00,,,0.00,Weather View 32 v70,2013-07-18 20:59:00,
2013-07-18 14:04:00,81.2,46.7,30.02,WNW,297,6.0,22.0,30,0.00,,,0.00,Weather View 32 v70,2013-07-18 21:04:00,
2013-07-18 14:09:00,81.4,47.8,30.02,West,275,13.0,22.0,31,0.00,,,0.00,Weather View 32 v70,2013-07-18 21:09:00,
2013-07-18 14:14:00,81.8,48.1,30.02,West,273,15.0,22.0,31,0.00,,,0.00,Weather View 32 v70,2013-07-18 21:14:00,
2013-07-18 14:19:00,82.2,48.5,30.01,WNW,290,4.0,22.0,31,0.00,,,0.00,Weather View 32 v70,2013-07-18 21:19:00,
2013-07-18 14:24:00,82.2,48.5,30.01,WNW,296,6.0,22.0,31,0.00,,,0.00,Weather View 32 v70,2013-07-18 21:24:00,
2013-07-18 14:29:00,82.2,49.3,30.01,NW,320,9.0,22.0,32,0.00,,,0.00,Weather View 32 v70,2013-07-18 21:29:00,
2013-07-18 14:34:00,82.2,50.9,30.01,West,281,3.0,22.0,34,0.00,,,0.00,Weather View 32 v70,2013-07-18 21:34:00,
2013-07-18 14:39:00,82.4,51.9,30.00,West,265,8.0,22.0,35,0.00,,,0.00,Weather View 32 v70,2013-07-18 21:39:00,
2013-07-18 14:44:00,82.6,52.1,30.00,NW,309,10.0,22.0,35,0.00,,,0.00,Weather View 32 v70,2013-07-18 21:44:00,
2013-07-18 14:49:00,83.0,51.6,30.00,West,281,13.0,22.0,34,0.00,,,0.00,Weather View 32 v70,2013-07-18 21:49:00,
2013-07-18 14:54:00,83.4,52.0,30.00,WNW,302,5.0,22.0,34,0.00,,,0.00,Weather View 32 v70,2013-07-18 21:54:00,
2013-07-18 14:59:00,83.2,51.8,30.00,West,259,4.0,24.0,34,0.00,,,0.00,Weather View 32 v70,2013-07-18 21:59:00,
2013-07-18 15:04:00,83.2,52.6,29.99,WNW,302,6.0,24.0,35,0.00,,,0.00,Weather View 32 v70,2013-07-18 22:04:00,
2013-07-18 15:09:00,83.0,52.4,29.99,West,269,10.0,24.0,35,0.00,,,0.00,Weather View 32 v70,2013-07-18 22:09:00,
2013-07-18 15:14:00,83.2,52.6,29.99,West,273,4.0,24.0,35,0.00,,,0.00,Weather View 32 v70,2013-07-18 22:14:00,
2013-07-18 15:19:00,83.4,52.0,29.99,WNW,301,3.0,24.0,34,0.00,,,0.00,Weather View 32 v70,2013-07-18 22:19:00,
2013-07-18 15:24:00,83.4,52.0,29.99,WNW,288,10.0,24.0,34,0.00,,,0.00,Weather View 32 v70,2013-07-18 22:24:00,
2013-07-18 15:29:00,83.4,52.8,29.99,West,280,12.0,24.0,35,0.00,,,0.00,Weather View 32 v70,2013-07-18 22:29:00,
2013-07-18 15:34:00,83.4,52.8,29.99,West,261,8.0,24.0,35,0.00,,,0.00,Weather View 32 v70,2013-07-18 22:34:00,
2013-07-18 15:39:00,83.2,53.4,29.98,NW,304,12.0,24.0,36,0.00,,,0.00,Weather View 32 v70,2013-07-18 22:39:00,
2013-07-18 15:44:00,83.2,54.1,29.98,WNW,285,5.0,24.0,37,0.00,,,0.00,Weather View 32 v70,2013-07-18 22:44:00,
2013-07-18 15:49:00,83.2,54.9,29.98,NW,317,9.0,24.0,38,0.00,,,0.00,Weather View 32 v70,2013-07-18 22:49:00,
2013-07-18 15:54:00,83.4,54.3,29.97,WNW,286,13.0,24.0,37,0.00,,,0.00,Weather View 32 v70,2013-07-18 22:54:00,
2013-07-18 15:59:00,83.4,55.0,29.97,NW,313,14.0,22.0,38,0.00,,,0.00,Weather View 32 v70,2013-07-18 22:59:00,
2013-07-18 16:04:00,83.4,54.3,29.97,West,281,4.0,22.0,37,0.00,,,0.00,Weather View 32 v70,2013-07-18 23:04:00,
2013-07-18 16:09:00,83.2,53.4,29.97,WNW,288,11.0,23.0,36,0.00,,,0.00,Weather View 32 v70,2013-07-18 23:09:00,
2013-07-18 16:14:00,83.2,53.4,29.97,NW,307,7.0,23.0,36,0.00,,,0.00,Weather View 32 v70,2013-07-18 23:14:00,
2013-07-18 16:19:00,83.2,54.1,29.97,WNW,288,7.0,23.0,37,0.00,,,0.00,Weather View 32 v70,2013-07-18 23:19:00,
2013-07-18 16:24:00,83.4,52.8,29.97,West,276,15.0,23.0,35,0.00,,,0.00,Weather View 32 v70,2013-07-18 23:24:00,
2013-07-18 16:29:00,83.4,52.8,29.96,NW,313,13.0,23.0,35,0.00,,,0.00,Weather View 32 v70,2013-07-18 23:29:00,
2013-07-18 16:34:00,83.4,52.0,29.96,NNW,334,12.0,23.0,34,0.00,,,0.00,Weather View 32 v70,2013-07-18 23:34:00,
2013-07-18 16:39:00,83.4,52.0,29.96,West,264,19.0,23.0,34,0.00,,,0.00,Weather View 32 v70,2013-07-18 23:39:00,
2013-07-18 16:44:00,83.8,52.3,29.96,West,272,19.0,23.0,34,0.00,,,0.00,Weather View 32 v70,2013-07-18 23:44:00,
2013-07-18 16:49:00,83.4,51.2,29.96,West,272,19.0,23.0,33,0.00,,,0.00,Weather View 32 v70,2013-07-18 23:49:00,
2013-07-18 16:54:00,83.2,52.6,29.96,WNW,303,11.0,23.0,35,0.00,,,0.00,Weather View 32 v70,2013-07-18 23:54:00,
2013-07-18 16:59:00,83.4,53.6,29.95,WNW,286,5.0,23.0,36,0.00,,,0.00,Weather View 32 v70,2013-07-18 23:59:00,
2013-07-18 17:04:00,83.2,54.1,29.95,WSW,257,11.0,23.0,37,0.00,,,0.00,Weather View 32 v70,2013-07-19 00:04:00,
2013-07-18 17:09:00,83.2,54.1,29.95,NW,304,14.0,21.0,37,0.00,,,0.00,Weather View 32 v70,2013-07-19 00:09:00,
2013-07-18 17:14:00,82.8,53.8,29.95,WSW,252,8.0,26.0,37,0.00,,,0.00,Weather View 32 v70,2013-07-19 00:14:00,
2013-07-18 17:19:00,82.8,53.0,29.95,West,278,16.0,26.0,36,0.00,,,0.00,Weather View 32 v70,2013-07-19 00:19:00,
2013-07-18 17:24:00,82.6,52.9,29.95,West,273,5.0,26.0,36,0.00,,,0.00,Weather View 32 v70,2013-07-19 00:24:00,
2013-07-18 17:29:00,82.6,52.9,29.95,WNW,298,11.0,26.0,36,0.00,,,0.00,Weather View 32 v70,2013-07-19 00:29:00,
2013-07-18 17:34:00,82.6,52.9,29.95,West,268,8.0,26.0,36,0.00,,,0.00,Weather View 32 v70,2013-07-19 00:34:00,
2013-07-18 17:39:00,82.8,52.3,29.95,WSW,248,12.0,26.0,35,0.00,,,0.00,Weather View 32 v70,2013-07-19 00:39:00,
2013-07-18 17:44:00,82.8,53.0,29.95,WNW,298,11.0,26.0,36,0.00,,,0.00,Weather View 32 v70,2013-07-19 00:44:00,
2013-07-18 17:49:00,82.8,53.0,29.95,WNW,292,11.0,26.0,36,0.00,,,0.00,Weather View 32 v70,2013-07-19 00:49:00,
2013-07-18 17:54:00,82.6,52.1,29.95,NW,307,19.0,26.0,35,0.00,,,0.00,Weather View 32 v70,2013-07-19 00:54:00,
2013-07-18 17:59:00,82.4,51.9,29.95,West,270,14.0,26.0,35,0.00,,,0.00,Weather View 32 v70,2013-07-19 00:59:00,
2013-07-18 18:04:00,82.2,51.7,29.94,North,0,6.0,26.0,35,0.00,,,0.00,Weather View 32 v70,2013-07-19 01:04:00,
2013-07-18 18:09:00,82.0,51.6,29.94,West,279,14.0,26.0,35,0.00,,,0.00,Weather View 32 v70,2013-07-19 01:09:00,
2013-07-18 18:14:00,82.0,51.6,29.94,NW,304,6.0,25.0,35,0.00,,,0.00,Weather View 32 v70,2013-07-19 01:14:00,
2013-07-18 18:19:00,81.8,51.4,29.94,WSW,242,19.0,25.0,35,0.00,,,0.00,Weather View 32 v70,2013-07-19 01:19:00,
2013-07-18 18:24:00,81.6,50.4,29.94,West,270,17.0,25.0,34,0.00,,,0.00,Weather View 32 v70,2013-07-19 01:24:00,
2013-07-18 18:29:00,81.4,51.0,29.93,WNW,298,8.0,25.0,35,0.00,,,0.00,Weather View 32 v70,2013-07-19 01:29:00,
2013-07-18 18:34:00,81.2,50.9,29.93,West,267,12.0,25.0,35,0.00,,,0.00,Weather View 32 v70,2013-07-19 01:34:00,
2013-07-18 18:38:00,81.2,50.9,29.94,West,267,9.0,24.0,35,0.00,,,0.00,Weather View 32 v70,2013-07-19 01:38:00,
2013-07-18 18:44:00,81.2,50.9,29.94,WNW,294,8.0,24.0,35,0.00,,,0.00,Weather View 32 v70,2013-07-19 01:44:00,
2013-07-18 18:48:00,81.2,50.9,29.94,WNW,287,3.0,24.0,35,0.00,,,0.00,Weather View 32 v70,2013-07-19 01:48:00,
2013-07-18 18:53:00,81.2,50.9,29.94,NW,324,12.0,24.0,35,0.00,,,0.00,Weather View 32 v70,2013-07-19 01:53:00,
2013-07-18 18:58:00,80.9,50.6,29.95,West,259,5.0,24.0,35,0.00,,,0.00,Weather View 32 v70,2013-07-19 01:58:00,
2013-07-18 19:03:00,80.9,51.4,29.95,NW,311,8.0,24.0,36,0.00,,,0.00,Weather View 32 v70,2013-07-19 02:03:00,
2013-07-18 19:08:00,80.7,51.9,29.95,West,278,12.0,24.0,37,0.00,,,0.00,Weather View 32 v70,2013-07-19 02:08:00,
2013-07-18 19:14:00,80.5,51.7,29.95,WSW,246,7.0,24.0,37,0.00,,,0.00,Weather View 32 v70,2013-07-19 02:14:00,
2013-07-18 19:19:00,80.3,52.3,29.96,WNW,294,1.0,24.0,38,0.00,,,0.00,Weather View 32 v70,2013-07-19 02:19:00,
2013-07-18 19:24:00,80.3,51.6,29.96,West,273,5.0,23.0,37,0.00,,,0.00,Weather View 32 v70,2013-07-19 02:24:00,
2013-07-18 19:28:00,80.3,52.3,29.96,WNW,292,3.0,23.0,38,0.00,,,0.00,Weather View 32 v70,2013-07-19 02:28:00,
2013-07-18 19:33:00,80.5,52.5,29.96,NW,313,1.0,20.0,38,0.00,,,0.00,Weather View 32 v70,2013-07-19 02:33:00,
2013-07-18 19:38:00,80.5,52.5,29.96,West,263,7.0,20.0,38,0.00,,,0.00,Weather View 32 v70,2013-07-19 02:38:00,
2013-07-18 19:44:00,80.3,52.3,29.96,NW,309,2.0,18.0,38,0.00,,,0.00,Weather View 32 v70,2013-07-19 02:44:00,
2013-07-18 19:48:00,80.3,53.0,29.97,WSW,250,3.0,18.0,39,0.00,,,0.00,Weather View 32 v70,2013-07-19 02:48:00,
2013-07-18 19:53:00,79.8,52.6,29.97,West,263,3.0,18.0,39,0.00,,,0.00,Weather View 32 v70,2013-07-19 02:53:00,
2013-07-18 19:58:00,79.4,52.2,29.97,West,264,3.0,18.0,39,0.00,,,0.00,Weather View 32 v70,2013-07-19 02:58:00,
2013-07-18 20:03:00,79.2,52.7,29.97,West,279,3.0,18.0,40,0.00,,,0.00,Weather View 32 v70,2013-07-19 03:03:00,
2013-07-18 20:08:00,79.0,52.5,29.98,WSW,252,5.0,18.0,40,0.00,,,0.00,Weather View 32 v70,2013-07-19 03:08:00,
2013-07-18 20:13:00,78.8,53.0,29.97,West,268,5.0,18.0,41,0.00,,,0.00,Weather View 32 v70,2013-07-19 03:13:00,
2013-07-18 20:18:00,78.8,52.4,29.97,WNW,288,4.0,17.0,40,0.00,,,0.00,Weather View 32 v70,2013-07-19 03:18:00,
2013-07-18 20:23:00,78.6,52.2,29.98,WNW,288,2.0,17.0,40,0.00,,,0.00,Weather View 32 v70,2013-07-19 03:23:00,
2013-07-18 20:28:00,78.3,52.6,29.97,WNW,288,4.0,16.0,41,0.00,,,0.00,Weather View 32 v70,2013-07-19 03:28:00,
2013-07-18 20:33:00,78.1,53.1,29.98,West,275,6.0,16.0,42,0.00,,,0.00,Weather View 32 v70,2013-07-19 03:33:00,
2013-07-18 20:38:00,77.7,52.7,29.97,NW,305,3.0,16.0,42,0.00,,,0.00,Weather View 32 v70,2013-07-19 03:38:00,
2013-07-18 20:43:00,77.6,52.6,29.98,West,275,7.0,16.0,42,0.00,,,0.00,Weather View 32 v70,2013-07-19 03:43:00,
2013-07-18 20:48:00,77.2,52.9,29.98,WNW,285,5.0,16.0,43,0.00,,,0.00,Weather View 32 v70,2013-07-19 03:48:00,
2013-07-18 20:53:00,77.0,53.3,29.98,West,274,2.0,16.0,44,0.00,,,0.00,Weather View 32 v70,2013-07-19 03:53:00,
2013-07-18 20:58:00,76.8,53.8,29.98,WSW,246,5.0,16.0,45,0.00,,,0.00,Weather View 32 v70,2013-07-19 03:58:00,
2013-07-18 21:01:00,76.7,53.7,29.98,WSW,243,7.0,16.0,45,0.00,,,0.00,Weather View 32 v70,2013-07-19 04:01:00,
2013-07-18 21:06:00,76.5,54.1,29.98,WNW,282,9.0,16.0,46,0.00,,,0.00,Weather View 32 v70,2013-07-19 04:06:00,
2013-07-18 21:11:00,76.3,53.9,29.98,WSW,253,8.0,16.0,46,0.00,,,0.00,Weather View 32 v70,2013-07-19 04:11:00,
2013-07-18 21:16:00,76.0,53.7,29.98,WNW,284,8.0,17.0,46,0.00,,,0.00,Weather View 32 v70,2013-07-19 04:16:00,
2013-07-18 21:21:00,75.8,54.1,29.98,WNW,286,10.0,18.0,47,0.00,,,0.00,Weather View 32 v70,2013-07-19 04:21:00,
2013-07-18 21:26:00,75.6,56.1,29.98,West,281,9.0,18.0,51,0.00,,,0.00,Weather View 32 v70,2013-07-19 04:26:00,
2013-07-18 21:31:00,75.4,54.3,29.98,WNW,289,14.0,19.0,48,0.00,,,0.00,Weather View 32 v70,2013-07-19 04:31:00,
2013-07-18 21:36:00,75.4,54.3,29.98,WNW,283,11.0,19.0,48,0.00,,,0.00,Weather View 32 v70,2013-07-19 04:36:00,
2013-07-18 21:41:00,75.3,54.2,29.99,West,275,7.0,20.0,48,0.00,,,0.00,Weather View 32 v70,2013-07-19 04:41:00,
2013-07-18 21:46:00,74.9,54.9,29.99,West,279,5.0,22.0,50,0.00,,,0.00,Weather View 32 v70,2013-07-19 04:46:00,
2013-07-18 21:51:00,74.4,55.0,29.99,WNW,285,8.0,22.0,51,0.00,,,0.00,Weather View 32 v70,2013-07-19 04:51:00,
2013-07-18 21:56:00,74.2,54.9,29.99,West,262,3.0,22.0,51,0.00,,,0.00,Weather View 32 v70,2013-07-19 04:56:00,
2013-07-18 22:01:00,74.2,54.9,29.99,WSW,248,11.0,22.0,51,0.00,,,0.00,Weather View 32 v70,2013-07-19 05:01:00,
2013-07-18 22:06:00,74.0,55.2,29.99,West,277,9.0,22.0,52,0.00,,,0.00,Weather View 32 v70,2013-07-19 05:06:00,
2013-07-18 22:11:00,73.9,55.1,29.99,WSW,251,11.0,22.0,52,0.00,,,0.00,Weather View 32 v70,2013-07-19 05:11:00,
2013-07-18 22:16:00,73.7,55.5,29.99,North,0,2.0,22.0,53,0.00,,,0.00,Weather View 32 v70,2013-07-19 05:16:00,
2013-07-18 22:21:00,73.7,55.5,29.99,WSW,249,6.0,22.0,53,0.00,,,0.00,Weather View 32 v70,2013-07-19 05:21:00,
2013-07-18 22:26:00,73.5,55.3,29.99,West,261,5.0,22.0,53,0.00,,,0.00,Weather View 32 v70,2013-07-19 05:26:00,
2013-07-18 22:31:00,73.5,55.3,29.99,West,281,6.0,22.0,53,0.00,,,0.00,Weather View 32 v70,2013-07-19 05:31:00,
2013-07-18 22:36:00,73.3,55.1,29.99,West,279,5.0,22.0,53,0.00,,,0.00,Weather View 32 v70,2013-07-19 05:36:00,
2013-07-18 22:41:00,73.2,55.1,29.99,WNW,296,9.0,22.0,53,0.00,,,0.00,Weather View 32 v70,2013-07-19 05:41:00,
2013-07-18 22:46:00,73.2,55.0,29.99,West,279,8.0,20.0,53,0.00,,,0.00,Weather View 32 v70,2013-07-19 05:46:00,
2013-07-18 22:51:00,73.2,55.5,29.99,West,275,18.0,20.0,54,0.00,,,0.00,Weather View 32 v70,2013-07-19 05:51:00,
2013-07-18 22:56:00,73.0,55.3,29.99,WNW,296,8.0,20.0,54,0.00,,,0.00,Weather View 32 v70,2013-07-19 05:56:00,
2013-07-18 23:01:00,73.0,55.3,29.99,WNW,298,2.0,20.0,54,0.00,,,0.00,Weather View 32 v70,2013-07-19 06:01:00,
2013-07-18 23:06:00,72.8,55.1,30.00,West,280,6.0,20.0,54,0.00,,,0.00,Weather View 32 v70,2013-07-19 06:06:00,
2013-07-18 23:11:00,72.7,55.5,30.00,WSW,256,7.0,20.0,55,0.00,,,0.00,Weather View 32 v70,2013-07-19 06:11:00,
2013-07-18 23:16:00,72.7,55.5,30.00,WNW,299,9.0,19.0,55,0.00,,,0.00,Weather View 32 v70,2013-07-19 06:16:00,
2013-07-18 23:21:00,72.7,55.5,30.00,SW,223,6.0,19.0,55,0.00,,,0.00,Weather View 32 v70,2013-07-19 06:21:00,
2013-07-18 23:26:00,72.5,55.4,30.00,WNW,284,7.0,19.0,55,0.00,,,0.00,Weather View 32 v70,2013-07-19 06:26:00,
2013-07-18 23:31:00,72.5,55.4,30.01,West,277,5.0,19.0,55,0.00,,,0.00,Weather View 32 v70,2013-07-19 06:31:00,
2013-07-18 23:36:00,72.3,55.7,30.01,WSW,238,2.0,19.0,56,0.00,,,0.00,Weather View 32 v70,2013-07-19 06:36:00,
2013-07-18 23:41:00,72.3,55.7,30.01,WSW,241,11.0,19.0,56,0.00,,,0.00,Weather View 32 v70,2013-07-19 06:41:00,
2013-07-18 23:46:00,72.1,55.5,30.01,NW,317,5.0,19.0,56,0.00,,,0.00,Weather View 32 v70,2013-07-19 06:46:00,
2013-07-18 23:51:00,72.0,55.4,30.01,West,275,13.0,19.0,56,0.00,,,0.00,Weather View 32 v70,2013-07-19 06:51:00,
2013-07-18 23:55:00,71.8,55.7,30.01,West,269,6.0,18.0,57,0.00,,,0.00,Weather View 32 v70,2013-07-19 06:55:00,